Regional Weather Roundup
Issued by NWS

Home | Current Version | Previous Version | Graphics & Text | Print | Product List | Glossary On
Versions: 1 2 3 4 5 6 7 8 9 10 11 12 13 14 15 16 17 18 19 20 21 22 23 24 25 26 27 28 29 30 31 32 33 34 35 36 37 38 39 40 41 42 43 44 45 46 47 48 49 50
000
ASUS43 KIND 240159
RWRIN

WEATHER ROUNDUP FOR INDIANA
NATIONAL WEATHER SERVICE INDIANAPOLIS IN
1000 PM EDT TUE AUG 23 2016

NOTE: "FAIR" INDICATES FEW OR NO CLOUDS BELOW 12,000 FEET WITH NO
SIGNIFICANT WEATHER AND/OR OBSTRUCTIONS TO VISIBILITY.

* - STATION DOES NOT REPORT WEATHER SUCH AS PRECIPITATION OR FOG.

+ - STATION NOT QUALITY CONTROLLED BY THE NATIONAL WEATHER SERVICE.
    USE DATA WITH CAUTION...ESPECIALLY DEWPOINT AND RELATIVE
    HUMIDITY OBSERVATIONS.

INZ001>003-010>013-019-020-240300-
NORTHWEST INDIANA

CITY           SKY/WX    TMP DP  RH WIND       PRES   REMARKS
GARY /AIRPORT/ CLOUDY    75  63  64 SE6       30.14F
KNOX *+        CLOUDY    66  45  45 SE6       30.17R
MONTICELLO +   CLOUDY    71  60  67 CALM      30.17S

$$

LMZ046-743>745-240300-
SOUTHERN LAKE MICHIGAN

STATION/POSITION TIME  TEMP    WIND        PRES    WAVE
                       AIR SEA DIR/SP/G            HT
                 (UTC) (F)     (DEG/KT/KT) (MB)    (FT)
BURNS HARBOR     0100   76     180/  5/ 16 1021.0F
MICHIGAN CITY    0130   74     160/  8/ 10   N/A
5NW MICH CITY    0100   75 73  180/  8/ 10   N/A     1

$$

INZ004-005-014>016-021>024-240300-
NORTH CENTRAL INDIANA

CITY           SKY/WX    TMP DP  RH WIND       PRES   REMARKS
GOSHEN         PTCLDY    68  59  73 SE5       30.19R
SOUTH BEND     PTCLDY    70  61  73 S8        30.17F

$$

INZ006>009-017-018-025>027-240300-
NORTHEAST INDIANA

CITY           SKY/WX    TMP DP  RH WIND       PRES   REMARKS
ANGOLA *+      CLEAR     64  55  72 CALM      30.21S
FORT WAYNE     MOCLDY    68  61  78 S7        30.21S

$$

INZ028-029-035-036-043>045-051>053-240300-
WEST CENTRAL INDIANA

CITY           SKY/WX    TMP DP  RH WIND       PRES   REMARKS
CRAWFORDSVL +  MOCLDY    67  67 100 SE5       30.18S
LAFAYETTE      CLOUDY    71  65  81 SE5       30.16S
TERRE HAUTE    CLOUDY    72  65  78 SE5       30.17S

$$

INZ030>032-037>040-046>048-054>057-064-065-240300-
CENTRAL INDIANA

CITY           SKY/WX    TMP DP  RH WIND       PRES   REMARKS
COLUMBUS       CLEAR     68  68 100 CALM      30.20S
INDIANAPOLIS   CLOUDY    72  63  73 SE7       30.18S
-EAGLE CREEK   PTCLDY    73  62  68 MISG      30.19S
KOKOMO *+      MOCLDY    64  57  77 SE7       30.19F
MT COMFORT *+  PTCLDY    66  63  88 SE3       30.21S
SHELBYVILLE    MOCLDY    68  63  84 E6        30.19F

$$

INZ033-034-041-042-049-050-058-059-240300-
EAST CENTRAL INDIANA

CITY           SKY/WX    TMP DP  RH WIND       PRES   REMARKS
MUNCIE         PTCLDY    73  61  65 S3        30.21S

$$

INZ060-061-067>069-081>083-085>088-240300-
SOUTHWEST INDIANA

CITY           SKY/WX    TMP DP  RH WIND       PRES   REMARKS
EVANSVILLE     MOCLDY    75  67  76 E3        30.16F
HUNTINGBURG *+ MOCLDY    72  64  78 SE3       30.18S

$$

INZ062-063-066-070>080-084-089>092-240300-
SOUTH CENTRAL AND SOUTHEAST INDIANA

CITY           SKY/WX    TMP DP  RH WIND       PRES   REMARKS
BLOOMINGTON    PTCLDY    68  65  90 CALM      30.20R
MADISON *+     PTCLDY    70  63  78 SE5       30.23S

$$





USA.gov is the U.S. government's official web portal to all federal, state and local government web resources and services.